Location: Austin
(30.3000°N, 97.7500°W)
Time: 22:53:52
(UTC-06:00)

Cosmos 2082 Rocket - Pass Details

Date: 03 December 2025
Orbit: 834 x 851 km, 71.0° (Epoch: 07 December)

Event Time Altitude Azimuth Distance (km) Brightness Sun altitude
Rises 05:39:43 0° 199° (SSW) 3,380 5.3 -19.5°
Reaches altitude 10° 05:42:09 10° 199° (SSW) 2,446 4.6 -19.0°
Maximum altitude 05:47:46 88° 287° (WNW) 841 2.1 -17.8°
Drops below altitude 10° 05:53:24 10° 19° (NNE) 2,448 4.6 -16.6°
Sets 05:55:50 0° 20° (NNE) 3,384 5.4 -16.1°
